Regional Weather Roundup
Issued by NWS Cleveland, OH

Home | Current Version | Previous Version | Graphics & Text | Print | Product List | Glossary On
Versions: 1 2 3 4 5 6 7 8 9 10 11 12 13 14 15 16 17 18 19 20 21 22 23 24 25 26 27 28 29 30 31 32 33 34 35 36 37 38 39 40 41 42 43 44 45 46 47 48 49 50
000
ASUS41 KCLE 021400
RWRCLE
OHIO REGIONAL WEATHER ROUNDUP
NATIONAL WEATHER SERVICE WILMINGTON, OH
1000 AM EDT WED SEP 02 2015

NOTE: "FAIR" INDICATES FEW OR NO CLOUDS BELOW 12,000 FEET WITH NO
SIGNIFICANT WEATHER AND/OR OBSTRUCTIONS TO VISIBILITY.

OHZ001>008-015>018-024>027-034-035-043-044-021500-
   NORTHWEST OHIO

CITY           SKY/WX    TMP DP  RH WIND       PRES   REMARKS
DEFIANCE       MOSUNNY   73  68  84 S3        30.10S HAZE
FINDLAY        SUNNY     78  69  73 SW8       30.09F
TOLEDO EXPRESS PTSUNNY   76  68  76 W13       30.08S
TOLEDO EXEC    MOSUNNY   77  68  73 SW8       30.09S
LIMA           MOSUNNY   77  69  76 W9        30.12S
$$

OHZ009>014-019>023-028>033-038-089-021500-
   NORTHEAST OHIO

CITY           SKY/WX    TMP DP  RH WIND       PRES   REMARKS
CLE-HOPKINS    SUNNY     76  69  79 SW6       30.11S
CLE-LAKEFRONT  SUNNY     79  67  66 SW6       30.07S
CUY CO. ARPT   MOSUNNY   81  72  74 W7        30.10S
LORAIN-ELYRIA  SUNNY     76  69  79 SW5       30.10S
ASHTABULA      SUNNY     77  71  82 W5        30.10S
AKRON-CANTON   MOSUNNY   78  67  68 SW7       30.12S
WOOSTER        NOT AVBL
MANSFIELD      SUNNY     78  67  68 SW6       30.13S
YOUNGSTOWN     MOSUNNY   77  67  71 W6        30.11S
$$

OHZ042-051>053-060>062-070>072-077>081-021500-
  SOUTHWEST OHIO

CITY           SKY/WX    TMP DP  RH WIND       PRES   REMARKS
CINC-COVINGTON MOSUNNY   79  68  69 W3        30.15S
CINC-LUNKEN    SUNNY     77  71  82 CALM      30.15S HAZE
HAMILTON       MOSUNNY   75  70  84 SW3       30.15S HAZE
DAYTON         NOT AVBL
WRIGHT-PAT AFB NOT AVBL
DAYTON GENERAL PTSUNNY   76  69  79 SW6       30.14S
WILMINGTON     MOSUNNY   78  69  73 SW6       30.14F
$$

OHZ036-037-039>041-045>050-054>059-063>069-073>076-082>088-021500-
  CENTRAL AND SOUTHEAST OHIO

CITY           SKY/WX    TMP DP  RH WIND       PRES   REMARKS
COLUMBUS       MOSUNNY   77  65  66 CALM      30.12F
OSU AIRPORT    PTSUNNY   80  66  62 N7        30.13S
BOLTON FIELD   NOT AVBL
RICKENBACK AFB NOT AVBL
NEWARK         SUNNY     78  70  76 VRB3      30.13S
MARION         PTSUNNY   74  68  81 SW7       30.13S HAZE
LANCASTER      SUNNY     78  66  66 W5        30.14S
ZANESVILLE     SUNNY     78  65  63 CALM      30.13F
NEW PHILLY     SUNNY     79  69  71 VRB3      30.13S
$$


USA.gov is the U.S. government's official web portal to all federal, state and local government web resources and services.